Location: Oregon Star Party
(44.2935°N, 120.1332°W)
Time: 23:02:51
(UTC-08:00)

Amateur Radio Satellites - All Passes

Search period start: 30 January 2015 22:32
Search period end: 31 January 2015 22:32
Location: Oregon Star Party, 44.2935°N, 120.1332°W

Satellite Date Start Highest point End Downlink Frequencies (MHz)
Time Altitude Azimuth
ANTELSAT 30 Jan 22:33:34 22:37:58 58° 100° (E) 22:42:16 437.575/2403.000
50 SAT 30 Jan 22:37:06 22:40:47 30° 264° (W) 22:44:28 437.505
ESTCUBE 1 30 Jan 22:38:13 22:42:41 67° 259° (W) 22:47:11 437.505/2401.250
SPROUT 30 Jan 22:38:33 22:42:16 29° 69° (ENE) 22:46:05 437.525
TIGRISAT 30 Jan 22:40:12 22:44:40 67° 102° (ESE) 22:48:59 435.000
QB50P2 30 Jan 22:44:40 22:48:50 46° 99° (E) 22:52:59 145.880/145.840
QB50P1 30 Jan 22:53:18 22:57:34 57° 100° (E) 23:01:47 145.935-145.965
BUGSAT 1 30 Jan 22:55:33 22:59:42 46° 99° (E) 23:03:50 437.445
ISS 30 Jan 22:57:59 23:01:00 33° 342° (NNW) 23:04:02 145.825
VELOX 1 30 Jan 22:58:30 23:01:47 19° 268° (W) 23:04:59 145.980
CUBEBUG 1 30 Jan 23:00:07 23:04:15 41° 262° (W) 23:08:25 437.445
BEESAT 30 Jan 23:05:55 23:07:21 11° 59° (ENE) 23:09:01 436.000
TISAT 1 30 Jan 23:08:51 23:13:02 60° 74° (ENE) 23:17:16 437.305
POLYITAN 1 30 Jan 23:09:18 23:13:39 86° 103° (ESE) 23:17:57 437.675
ITUPSAT 1 30 Jan 23:10:28 23:12:21 13° 59° (ENE) 23:14:28 437.325
AIST 1 30 Jan 23:28:06 23:30:36 15° 274° (W) 23:32:56
POPSAT HIP 1 30 Jan 23:28:24 23:32:41 61° 287° (WNW) 23:36:54 437.405
DUCHIFAT 1 30 Jan 23:29:57 23:34:13 59° 287° (WNW) 23:38:26 145.980
UNISAT 6 30 Jan 23:34:25 23:38:27 33° 291° (WNW) 23:42:21 437.425
NANOSAT C BR1 31 Jan 00:05:31 00:09:08 26° 293° (WNW) 00:12:39 145.865
ANTELSAT 31 Jan 00:11:36 00:14:21 16° 297° (WNW) 00:16:54 437.575/2403.000
SPROUT 31 Jan 00:14:39 00:18:23 27° 266° (W) 00:22:05 437.525
GONETS M04 31 Jan 00:15:27 00:23:14 39° 87° (E) 00:31:09
TIGRISAT 31 Jan 00:18:32 00:20:55 14° 298° (WNW) 00:23:06 435.000
Oscar 19 31 Jan 00:18:37 00:21:13 14° 87° (E) 00:24:04 437.125/150
QB50P2 31 Jan 00:21:26 00:24:28 18° 295° (WNW) 00:27:23 145.880/145.840
SWISSCUBE 31 Jan 00:24:25 00:29:06 65° 73° (ENE) 00:33:51 437.505
O/OREOS (USA 219) 31 Jan 00:26:14 00:29:55 23° 54° (NE) 00:33:39 437.305
QB50P1 31 Jan 00:30:25 00:33:03 16° 297° (WNW) 00:35:33 145.935-145.965
BUGSAT 1 31 Jan 00:31:53 00:34:55 18° 295° (WNW) 00:37:49 437.445
KKS-1 31 Jan 00:31:57 00:34:36 16° 63° (ENE) 00:37:25 437.445
ISS 31 Jan 00:35:28 00:38:08 22° 2° (N) 00:40:48 145.825
BEESAT 31 Jan 00:39:46 00:44:32 85° 75° (ENE) 00:49:19 436.000
ITUPSAT 1 31 Jan 00:44:52 00:49:39 88° 258° (WSW) 00:54:26 437.325
TISAT 1 31 Jan 00:47:14 00:49:21 13° 272° (W) 00:51:15 437.305
POLYITAN 1 31 Jan 00:47:44 00:49:00 11° 300° (WNW) 00:50:03 437.675
BEESAT 2 31 Jan 01:44:17 01:48:18 54° 120° (ESE) 01:52:24 435.950
Gurwin Techsat 1B 31 Jan 01:46:00 01:50:13 24° 92° (E) 01:54:30 435.225
AIST 2 31 Jan 01:50:48 01:54:24 28° 115° (ESE) 01:58:06 435.215
M-CUBED/EXP-1 PRIME 31 Jan 01:54:31 01:58:18 47° 68° (ENE) 02:01:49 437.505
STARS 31 Jan 01:55:33 01:59:59 71° 74° (ENE) 02:04:28 437.465
Oscar 19 31 Jan 01:56:05 02:01:15 75° 286° (WNW) 02:06:22 437.125/150
BEESAT 3 31 Jan 01:56:16 02:00:23 82° 125° (SE) 02:04:34 437.485
SWISSCUBE 31 Jan 02:04:49 02:07:32 15° 272° (W) 02:10:02 437.505
DANDE 31 Jan 02:04:54 02:08:20 14° 77° (ENE) 02:12:22 436.750
O/OREOS (USA 219) 31 Jan 02:05:11 02:09:33 43° 252° (WSW) 02:13:53 437.305
KKS-1 31 Jan 02:06:24 02:10:50 60° 259° (WSW) 02:15:18 437.445
GONETS M04 31 Jan 02:11:30 02:19:58 50° 287° (WNW) 02:28:21
ISS 31 Jan 02:12:03 02:15:12 40° 21° (NNE) 02:18:21 145.825
HORYU 2 31 Jan 02:12:48 02:13:52 11° 87° (E) 02:15:13 437.375
ITAMSAT 1 31 Jan 02:16:26 02:21:38 62° 101° (E) 02:26:50 435.822/435.867
RS-15 31 Jan 02:20:55 02:24:29 13° 97° (E) 02:29:04 29.354- 29.394
CUSAT 1 31 Jan 02:20:56 02:26:32 21° 83° (E) 02:32:28 437.405
BEESAT 31 Jan 02:21:46 02:23:09 11° 274° (W) 02:24:14 436.000
AUBIESAT-1 31 Jan 02:25:55 02:29:50 82° 251° (WSW) 02:33:29 437.475
MOZHAYETS 4 31 Jan 02:26:48 02:27:46 11° 60° (ENE) 02:28:57
PCSat 31 Jan 02:48:15 02:51:59 20° 107° (ESE) 02:55:56 145.827
AO-7 31 Jan 03:13:14 03:20:05 29° 93° (E) 03:27:08 29.400- 29.500
BEESAT 2 31 Jan 03:23:38 03:26:51 21° 320° (NW) 03:30:03 435.950
Gurwin Techsat 1B 31 Jan 03:25:21 03:30:29 48° 290° (WNW) 03:35:33 435.225
AIST 2 31 Jan 03:28:59 03:32:56 36° 313° (NW) 03:36:56 435.215
M-CUBED/EXP-1 PRIME 31 Jan 03:31:21 03:33:31 14° 263° (W) 03:35:27 437.505
STARS 31 Jan 03:35:10 03:37:04 12° 273° (W) 03:38:44 437.465
BEESAT 3 31 Jan 03:36:28 03:39:07 16° 324° (NW) 03:41:41 437.485
Oscar 19 31 Jan 03:38:11 03:39:49 11° 303° (WNW) 03:41:11 437.125/150
DANDE 31 Jan 03:42:14 03:50:26 62° 94° (E) 03:58:52 436.750
HORYU 2 31 Jan 03:46:44 03:51:13 76° 284° (WNW) 03:55:37 437.375
ISS 31 Jan 03:48:37 03:51:40 35° 220° (SW) 03:54:42 145.825
ITAMSAT 1 31 Jan 03:56:58 04:00:44 20° 298° (WNW) 04:04:21 435.822/435.867
MOZHAYETS 4 31 Jan 03:59:45 04:04:21 86° 76° (ENE) 04:08:57
CUSAT 1 31 Jan 04:00:21 04:08:44 87° 98° (E) 04:17:03 437.405
JAS-2 31 Jan 04:13:29 04:18:49 39° 97° (E) 04:24:48 435.910
GONETS M04 31 Jan 04:18:26 04:19:42 10° 314° (NW) 04:20:19
YUBILEINY 31 Jan 04:21:14 04:26:03 16° 54° (NE) 04:31:21 435.215
CUBESAT XI-V 31 Jan 04:23:40 04:25:54 14° 61° (ENE) 04:28:19 437.345
RS-15 31 Jan 04:24:10 04:34:48 63° 117° (ESE) 04:45:37 29.354- 29.394
PCSat 31 Jan 04:29:35 04:34:58 64° 304° (NW) 04:40:24 145.827
CUTE-I 31 Jan 04:57:17 04:59:06 12° 85° (E) 05:01:15 437.470
AO-7 31 Jan 05:05:19 05:13:36 68° 293° (WNW) 05:21:47 29.400- 29.500
PRISM 31 Jan 05:08:10 05:12:07 48° 72° (ENE) 05:16:07 437.425
STRAND 1 31 Jan 05:18:17 05:22:53 36° 68° (ENE) 05:27:34 437.568
DANDE 31 Jan 05:26:38 05:34:24 37° 294° (WNW) 05:42:04 436.750
MOZHAYETS 4 31 Jan 05:41:53 05:42:20 10° 275° (W) 05:42:29
CUSAT 1 31 Jan 05:46:03 05:52:49 25° 299° (WNW) 05:59:09 437.405
CUBESAT XI-V 31 Jan 05:58:14 06:02:50 74° 259° (W) 06:07:29 437.345
JAS-2 31 Jan 05:58:49 06:03:56 35° 292° (WNW) 06:09:31 435.910
Cubesat XI-IV 31 Jan 06:15:19 06:20:40 62° 101° (E) 06:26:00 437.490
YUBILEINY 31 Jan 06:16:08 06:24:56 71° 78° (ENE) 06:33:44 435.215
PCSat 31 Jan 06:16:25 06:19:33 15° 327° (NNW) 06:22:33 145.827
CUTE-I 31 Jan 06:34:39 06:40:04 89° 97° (E) 06:45:28 437.470
RS-15 31 Jan 06:37:20 06:47:45 46° 322° (NW) 06:58:19 29.354- 29.394
PRISM 31 Jan 06:45:31 06:48:00 15° 270° (W) 06:50:19 437.425
STRAND 1 31 Jan 06:57:41 07:02:10 30° 265° (W) 07:06:36 437.568
AO-7 31 Jan 06:59:47 07:05:03 18° 314° (NW) 07:09:59 29.400- 29.500
GOMX 1 31 Jan 07:37:36 07:40:16 14° 85° (E) 07:43:07 467.674
BRITE-PL 31 Jan 07:52:08 07:56:56 28° 91° (E) 08:01:38 437.365/2234.400
PHONESAT 2.4 31 Jan 07:54:48 07:57:10 17° 154° (SSE) 07:59:37 2401.200-2431.200
Cubesat XI-IV 31 Jan 07:56:24 08:00:22 21° 298° (WNW) 08:04:11 437.490
CANX-2 31 Jan 08:10:33 08:14:03 25° 94° (E) 08:17:35 2200.000
YUBILEINY 31 Jan 08:14:03 08:21:04 27° 278° (W) 08:27:48 435.215
AAUSAT CUBESAT 2 31 Jan 08:14:47 08:17:16 16° 90° (E) 08:19:55 437.432
CUTE-I 31 Jan 08:16:30 08:19:30 15° 302° (WNW) 08:22:17 437.470
VERMONT LUNAR 31 Jan 08:19:38 08:22:42 29° 164° (SSE) 08:25:48 437.305
HO-68 31 Jan 08:26:19 08:33:04 43° 98° (E) 08:39:51 435.675
BEESAT 2 31 Jan 08:26:22 08:27:39 11° 30° (NNE) 08:29:04 435.950
CUTE 1.7 + AOD 2 31 Jan 08:34:02 08:38:02 41° 97° (E) 08:42:02 437.475
BEESAT 3 31 Jan 08:37:29 08:39:43 14° 34° (NE) 08:42:04 437.485
Oscar 11 31 Jan 08:44:21 08:47:06 17° 90° (E) 08:50:00 145.826/435.025
CINEMA 3 31 Jan 08:45:51 08:49:40 24° 91° (E) 08:53:26 145.822/145.860
POPSAT HIP 1 31 Jan 08:49:24 08:51:30 14° 62° (ENE) 08:53:48 437.405
DUCHIFAT 1 31 Jan 08:50:38 08:52:46 14° 63° (ENE) 08:55:05 145.980
RS-15 31 Jan 08:54:57 09:03:48 26° 355° (N) 09:12:49 29.354- 29.394
UNISAT 6 31 Jan 08:58:19 09:02:20 29° 68° (ENE) 09:06:25 437.425
SEEDS 31 Jan 09:01:21 09:05:33 71° 101° (E) 09:09:43 437.485
GOMX 1 31 Jan 09:13:43 09:19:12 80° 283° (WNW) 09:24:21 467.674
DOVE 4 31 Jan 09:15:11 09:20:25 80° 101° (E) 09:25:22 437.250
UKube-1 31 Jan 09:20:34 09:23:58 22° 93° (E) 09:27:27 .
NANOSAT C BR1 31 Jan 09:23:58 09:27:40 30° 69° (ENE) 09:31:27 145.865
COMPASS 1 31 Jan 09:24:36 09:28:47 77° 284° (WNW) 09:32:55 437.405
HUMSAT D 31 Jan 09:26:09 09:27:51 12° 87° (E) 09:29:46 437.325/437.525
SO-50 31 Jan 09:27:11 09:31:28 42° 118° (ESE) 09:35:56 436.795
BRITE-PL 31 Jan 09:30:14 09:35:38 44° 290° (WNW) 09:40:46 437.365/2234.400
DELFI C3 31 Jan 09:31:15 09:35:07 42° 98° (E) 09:38:58 145.870
PHONESAT 2.4 31 Jan 09:31:51 09:35:14 39° 170° (S) 09:38:40 2401.200-2431.200
ANTELSAT 31 Jan 09:33:45 09:38:25 65° 74° (ENE) 09:43:05 437.575/2403.000
QB50P2 31 Jan 09:39:15 09:43:18 43° 71° (ENE) 09:47:26 145.880/145.840
ZACube-1 31 Jan 09:39:39 09:43:37 32° 95° (E) 09:47:31 437.345
TIGRISAT 31 Jan 09:40:04 09:44:46 73° 75° (ENE) 09:49:27 435.000
CUBEBUG 2 31 Jan 09:42:03 09:46:30 49° 99° (E) 09:50:47 437.445
DX 1 31 Jan 09:43:39 09:47:50 40° 98° (E) 09:51:59 434.975-435.025
CANX-2 31 Jan 09:46:19 09:50:02 30° 291° (WNW) 09:53:42 2200.000
BUGSAT 1 31 Jan 09:47:25 09:51:16 39° 70° (ENE) 09:55:12 437.445
QB50P1 31 Jan 09:47:38 09:51:47 52° 73° (ENE) 09:56:00 145.935-145.965
AAUSAT CUBESAT 2 31 Jan 09:49:16 09:53:16 46° 288° (WNW) 09:57:14 437.432
FUNcube-1 31 Jan 09:50:40 09:54:52 41° 97° (E) 09:58:57 145.935
VERMONT LUNAR 31 Jan 09:57:08 10:00:29 45° 180° (S) 10:03:50 437.305
BEESAT 2 31 Jan 10:02:42 10:06:51 57° 52° (NE) 10:10:55 435.950
POLYITAN 1 31 Jan 10:03:51 10:08:10 80° 76° (ENE) 10:12:31 437.675
CUTE 1.7 + AOD 2 31 Jan 10:10:38 10:13:44 20° 294° (WNW) 10:16:43 437.475
AIST 2 31 Jan 10:10:48 10:14:43 33° 46° (NE) 10:18:35 435.215
HO-68 31 Jan 10:14:11 10:20:48 41° 297° (WNW) 10:27:19 435.675
BEESAT 3 31 Jan 10:14:23 10:18:35 83° 55° (NE) 10:22:42 437.485
50 SAT 31 Jan 10:14:49 10:18:25 30° 96° (E) 10:21:59 437.505
UWE-3 31 Jan 10:17:05 10:21:37 84° 284° (WNW) 10:25:58 435.000/436.395/437.385
AISAT 31 Jan 10:19:17 10:23:31 38° 97° (E) 10:27:44 437.250
Oscar 11 31 Jan 10:19:28 10:23:37 47° 288° (WNW) 10:27:44 145.826/435.025
AIST 1 31 Jan 10:20:48 10:24:24 28° 90° (E) 10:28:05
CINEMA 3 31 Jan 10:22:32 10:27:05 40° 290° (WNW) 10:31:23 145.822/145.860
POPSAT HIP 1 31 Jan 10:22:40 10:26:56 66° 259° (WSW) 10:31:15 437.405
GONETS M04 31 Jan 10:23:35 10:29:40 21° 58° (ENE) 10:36:04
DUCHIFAT 1 31 Jan 10:23:56 10:28:10 64° 259° (W) 10:32:27 145.980
ESTCUBE 1 31 Jan 10:30:02 10:33:36 23° 93° (E) 10:37:15 437.505/2401.250
UNISAT 6 31 Jan 10:34:50 10:39:06 32° 265° (W) 10:43:17 437.425
SEEDS 31 Jan 10:39:06 10:40:53 12° 298° (WNW) 10:42:30 437.485
VELOX 1 31 Jan 10:46:06 10:50:37 72° 102° (ESE) 10:55:06 145.980
CUBEBUG 1 31 Jan 10:47:32 10:51:31 31° 96° (E) 10:55:31 437.445
GOMX 1 31 Jan 10:53:58 10:56:27 13° 302° (WNW) 10:58:39 467.674
DOVE 4 31 Jan 10:54:29 10:57:32 15° 300° (WNW) 11:00:18 437.250
UKube-1 31 Jan 10:56:15 11:00:17 36° 291° (WNW) 11:04:15 .
NANOSAT C BR1 31 Jan 10:59:53 11:03:33 27° 266° (W) 11:07:12 145.865
HUMSAT D 31 Jan 10:59:58 11:04:11 61° 286° (WNW) 11:08:18 437.325/437.525
DELFI C3 31 Jan 11:07:19 11:10:05 18° 294° (WNW) 11:12:45 145.870
SO-50 31 Jan 11:08:04 11:12:10 30° 318° (NW) 11:16:22 436.795
PHONESAT 2.4 31 Jan 11:10:03 11:13:31 42° 187° (S) 11:16:59 2401.200-2431.200
RS-15 31 Jan 11:10:27 11:20:28 36° 28° (NNE) 11:30:59 29.354- 29.394
ANTELSAT 31 Jan 11:12:59 11:15:43 15° 272° (W) 11:18:14 437.575/2403.000
ZACube-1 31 Jan 11:16:13 11:19:55 25° 293° (WNW) 11:23:26 437.345
QB50P2 31 Jan 11:16:25 11:19:29 18° 269° (W) 11:22:27 145.880/145.840
CUBEBUG 2 31 Jan 11:19:38 11:22:51 19° 296° (WNW) 11:25:52 437.445
TIGRISAT 31 Jan 11:19:50 11:22:06 13° 273° (W) 11:24:08 435.000
DX 1 31 Jan 11:20:28 11:23:52 22° 295° (WNW) 11:27:09 434.975-435.025
BUGSAT 1 31 Jan 11:23:59 11:26:59 19° 269° (W) 11:29:54 437.445
QB50P1 31 Jan 11:25:27 11:28:04 15° 271° (W) 11:30:32 145.935-145.965
FUNcube-1 31 Jan 11:27:39 11:30:58 20° 295° (WNW) 11:34:07 145.935
PCSat 31 Jan 11:33:02 11:37:35 27° 44° (NE) 11:42:11 145.827
VERMONT LUNAR 31 Jan 11:35:10 11:38:14 28° 197° (SSW) 11:41:19 437.305
Oscar 19 31 Jan 11:36:25 11:40:37 26° 65° (ENE) 11:44:55 437.125/150
BEESAT 2 31 Jan 11:42:04 11:44:41 16° 248° (WSW) 11:47:07 435.950
AIST 2 31 Jan 11:49:30 11:53:18 30° 244° (WSW) 11:56:59 435.215
50 SAT 31 Jan 11:50:09 11:53:25 23° 293° (WNW) 11:56:35 437.505
BEESAT 3 31 Jan 11:55:22 11:56:08 10° 251° (WSW) 11:56:41 437.485
AISAT 31 Jan 11:56:20 11:59:58 23° 294° (WNW) 12:03:29 437.250
UWE-3 31 Jan 11:57:01 11:57:27 10° 301° (WNW) 11:57:37 435.000/436.395/437.385
AIST 1 31 Jan 11:58:29 12:02:05 25° 288° (WNW) 12:05:39
SPROUT 31 Jan 11:59:12 12:03:24 46° 98° (E) 12:07:35 437.525
ITAMSAT 1 31 Jan 11:59:16 12:02:19 16° 60° (ENE) 12:05:33 435.822/435.867
ESTCUBE 1 31 Jan 12:06:25 12:10:38 38° 290° (WNW) 12:14:49 437.505/2401.250
GONETS M04 31 Jan 12:19:13 12:27:58 90° 84° (E) 12:36:42
CUBEBUG 1 31 Jan 12:24:01 12:27:50 27° 292° (WNW) 12:31:33 437.445
VELOX 1 31 Jan 12:24:20 12:26:42 14° 299° (WNW) 12:28:54 145.980
SWISSCUBE 31 Jan 12:24:41 12:27:19 15° 89° (E) 12:30:10 437.505
AO-7 31 Jan 12:27:44 12:30:34 12° 40° (NE) 12:33:48 29.400- 29.500
TISAT 1 31 Jan 12:27:51 12:32:11 90° 301° (WNW) 12:36:28 437.305
BEESAT 31 Jan 12:39:26 12:42:48 19° 91° (E) 12:46:19 436.000
ITUPSAT 1 31 Jan 12:44:43 12:48:20 21° 92° (E) 12:52:04 437.325
PHONESAT 2.4 31 Jan 12:48:51 12:51:39 21° 203° (SSW) 12:54:24 2401.200-2431.200
CUSAT 1 31 Jan 13:01:45 13:03:43 12° 49° (NE) 13:05:48 437.405
Gurwin Techsat 1B 31 Jan 13:08:27 13:13:25 44° 69° (ENE) 13:18:28 435.225
HORYU 2 31 Jan 13:12:30 13:14:50 14° 62° (ENE) 13:17:22 437.375
Oscar 19 31 Jan 13:14:49 13:19:47 44° 262° (W) 13:24:45 437.125/150
PCSat 31 Jan 13:16:03 13:21:23 57° 244° (WSW) 13:26:40 145.827
RS-15 31 Jan 13:23:09 13:34:34 89° 57° (ENE) 13:46:29 29.354- 29.394
ITAMSAT 1 31 Jan 13:36:05 13:41:16 76° 257° (WSW) 13:46:30 435.822/435.867
SPROUT 31 Jan 13:36:06 13:39:13 19° 295° (WNW) 13:42:12 437.525
STARS 31 Jan 13:46:16 13:47:45 12° 87° (E) 13:49:29 437.465
KKS-1 31 Jan 13:56:38 14:00:13 23° 93° (E) 14:03:51 437.445
SWISSCUBE 31 Jan 14:00:58 14:05:43 64° 287° (WNW) 14:10:28 437.505
TISAT 1 31 Jan 14:06:36 14:07:23 10° 300° (WNW) 14:07:58 437.305
AO-7 31 Jan 14:13:39 14:21:26 47° 62° (ENE) 14:29:20 29.400- 29.500
BEESAT 31 Jan 14:16:22 14:21:00 49° 289° (WNW) 14:25:36 436.000
GONETS M04 31 Jan 14:17:55 14:23:45 19° 281° (WNW) 14:29:08
ITUPSAT 1 31 Jan 14:21:55 14:26:30 45° 290° (WNW) 14:31:03 437.325
DANDE 31 Jan 14:26:40 14:33:04 48° 70° (ENE) 14:37:52 436.750
JAS-2 31 Jan 14:30:11 14:33:30 18° 61° (ENE) 14:36:57 435.910
O/OREOS (USA 219) 31 Jan 14:41:11 14:44:06 18° 101° (ESE) 14:47:10 437.305
CUSAT 1 31 Jan 14:42:22 14:48:34 76° 78° (ENE) 14:53:03 437.405
HORYU 2 31 Jan 14:46:34 14:51:03 68° 259° (W) 14:55:33 437.375
Gurwin Techsat 1B 31 Jan 14:49:10 14:53:37 26° 267° (W) 14:58:00 435.225
M-CUBED/EXP-1 PRIME 31 Jan 15:09:56 15:12:42 24° 101° (ESE) 15:15:36 437.505
STARS 31 Jan 15:20:23 15:24:51 72° 285° (WNW) 15:29:16 437.465
KKS-1 31 Jan 15:32:51 15:37:00 37° 291° (WNW) 15:41:06 437.445
RS-15 31 Jan 15:36:52 15:45:51 26° 256° (WSW) 15:54:35 29.354- 29.394
AUBIESAT-1 31 Jan 15:40:33 15:43:51 53° 106° (ESE) 15:47:14 437.475
MOZHAYETS 4 31 Jan 15:54:24 15:57:29 18° 90° (E) 16:00:42
Cubesat XI-IV 31 Jan 16:01:27 16:04:51 18° 60° (ENE) 16:08:27 437.490
AO-7 31 Jan 16:06:23 16:14:19 45° 261° (W) 16:22:14 29.400- 29.500
DANDE 31 Jan 16:10:58 16:15:56 24° 277° (W) 16:19:49 436.750
JAS-2 31 Jan 16:12:53 16:18:16 64° 258° (WSW) 16:23:26 435.910
SO-50 31 Jan 16:17:29 16:20:10 15° 30° (NNE) 16:22:58 436.795
O/OREOS (USA 219) 31 Jan 16:18:47 16:23:10 50° 298° (WNW) 16:27:36 437.305
CUTE-I 31 Jan 16:19:42 16:23:54 25° 64° (ENE) 16:28:13 437.470
CUSAT 1 31 Jan 16:27:41 16:30:18 13° 283° (WNW) 16:32:24 437.405
M-CUBED/EXP-1 PRIME 31 Jan 16:45:07 16:47:40 20° 297° (WNW) 16:50:13 437.505
AUBIESAT-1 31 Jan 17:17:34 17:18:29 11° 301° (WNW) 17:19:15 437.475
YUBILEINY 31 Jan 17:27:27 17:31:42 15° 76° (ENE) 17:36:32 435.215
MOZHAYETS 4 31 Jan 17:30:38 17:35:03 48° 288° (WNW) 17:39:26
STRAND 1 31 Jan 17:30:40 17:30:42 10° 85° (E) 17:31:05 437.568
Cubesat XI-IV 31 Jan 17:39:08 17:44:27 71° 257° (WSW) 17:49:49 437.490
CUBESAT XI-V 31 Jan 17:53:54 17:57:44 25° 93° (E) 18:01:39 437.345
SO-50 31 Jan 17:56:52 18:01:45 61° 51° (NE) 18:06:38 436.795
CUTE-I 31 Jan 17:58:34 18:03:43 49° 261° (W) 18:08:55 437.470
PRISM 31 Jan 18:24:39 18:28:48 67° 102° (ESE) 18:32:56 437.425
GOMX 1 31 Jan 18:46:44 18:50:19 19° 62° (ENE) 18:54:10 467.674
DOVE 4 31 Jan 18:47:05 18:49:44 15° 59° (ENE) 18:52:37 437.250
HO-68 31 Jan 18:56:40 19:03:08 39° 63° (ENE) 19:09:41 435.675
BRITE-PL 31 Jan 19:04:03 19:08:45 36° 68° (ENE) 19:13:48 437.365/2234.400
CANX-2 31 Jan 19:05:27 19:08:51 24° 67° (ENE) 19:12:19 2200.000
STRAND 1 31 Jan 19:05:39 19:10:50 82° 104° (ESE) 19:16:01 437.568
AAUSAT CUBESAT 2 31 Jan 19:08:11 19:10:30 15° 64° (ENE) 19:12:58 437.432
YUBILEINY 31 Jan 19:18:34 19:27:12 77° 95° (E) 19:35:56 435.215
CUTE 1.7 + AOD 2 31 Jan 19:28:34 19:32:30 37° 71° (ENE) 19:36:28 437.475
CUBESAT XI-V 31 Jan 19:30:58 19:35:18 37° 290° (WNW) 19:39:37 437.345
SO-50 31 Jan 19:38:21 19:41:57 20° 248° (WSW) 19:45:23 436.795
Oscar 11 31 Jan 19:41:08 19:43:58 18° 65° (ENE) 19:46:55 145.826/435.025
UWE-3 31 Jan 19:42:08 19:44:03 13° 61° (ENE) 19:46:11 435.000/436.395/437.385
CINEMA 3 31 Jan 19:48:45 19:52:57 29° 67° (ENE) 19:57:17 145.822/145.860
SEEDS 31 Jan 19:54:59 19:59:10 61° 74° (ENE) 20:03:23 437.485
PRISM 31 Jan 20:01:53 20:03:52 13° 298° (WNW) 20:05:41 437.425
UKube-1 31 Jan 20:17:20 20:20:49 25° 66° (ENE) 20:24:24 .
COMPASS 1 31 Jan 20:17:24 20:21:38 89° 78° (ENE) 20:25:53 437.405
HUMSAT D 31 Jan 20:20:19 20:22:14 13° 62° (ENE) 20:24:21 437.325/437.525
DELFI C3 31 Jan 20:21:09 20:24:50 33° 70° (ENE) 20:28:31 145.870
DOVE 4 31 Jan 20:21:38 20:26:46 89° 254° (WSW) 20:32:09 437.250
GOMX 1 31 Jan 20:22:45 20:27:54 67° 259° (W) 20:33:21 467.674
ISS 31 Jan 20:29:21 20:32:12 28° 139° (SE) 20:35:06 145.825
ZACube-1 31 Jan 20:37:02 20:41:09 34° 70° (ENE) 20:45:20 437.345
CANX-2 31 Jan 20:40:45 20:44:41 34° 264° (W) 20:48:35 2200.000
DX 1 31 Jan 20:40:49 20:44:56 43° 71° (ENE) 20:49:07 434.975-435.025
CUBEBUG 2 31 Jan 20:41:23 20:46:01 52° 72° (ENE) 20:50:41 437.445
AAUSAT CUBESAT 2 31 Jan 20:41:39 20:45:47 56° 260° (W) 20:49:56 437.432
BRITE-PL 31 Jan 20:42:36 20:47:17 33° 267° (W) 20:52:13 437.365/2234.400
HO-68 31 Jan 20:44:00 20:50:48 45° 262° (W) 20:57:36 435.675
STRAND 1 31 Jan 20:46:29 20:49:27 15° 301° (WNW) 20:52:14 437.568
FUNcube-1 31 Jan 20:47:46 20:52:06 42° 71° (ENE) 20:56:28 145.935
50 SAT 31 Jan 21:03:58 21:07:21 25° 68° (ENE) 21:10:48 437.505
CUTE 1.7 + AOD 2 31 Jan 21:05:16 21:08:36 21° 268° (W) 21:11:50 437.475
UWE-3 31 Jan 21:15:17 21:20:00 86° 258° (WSW) 21:24:45 435.000/436.395/437.385
Oscar 11 31 Jan 21:15:36 21:19:50 49° 261° (W) 21:24:04 145.826/435.025
YUBILEINY 31 Jan 21:18:07 21:25:09 25° 299° (WNW) 21:31:56 435.215
AISAT 31 Jan 21:18:54 21:23:06 42° 70° (ENE) 21:27:22 437.250
CINEMA 3 31 Jan 21:25:23 21:30:02 38° 264° (W) 21:34:44 145.822/145.860
ANTELSAT 31 Jan 21:27:00 21:28:18 11° 86° (E) 21:29:52 437.575/2403.000
ESTCUBE 1 31 Jan 21:31:31 21:35:12 26° 67° (ENE) 21:38:59 437.505/2401.250
TIGRISAT 31 Jan 21:32:30 21:34:25 13° 87° (E) 21:36:32 435.000
SEEDS 31 Jan 21:33:25 21:35:29 13° 272° (W) 21:37:20 437.485
VELOX 1 31 Jan 21:45:20 21:49:47 78° 74° (ENE) 21:54:16 145.980
CUBEBUG 1 31 Jan 21:45:30 21:49:21 32° 69° (ENE) 21:53:18 437.445
POLYITAN 1 31 Jan 21:50:13 21:51:47 12° 87° (E) 21:53:36 437.675
UKube-1 31 Jan 21:52:54 21:56:52 34° 263° (W) 22:00:49 .
HUMSAT D 31 Jan 21:53:11 21:57:32 72° 258° (WSW) 22:01:54 437.325/437.525
DELFI C3 31 Jan 21:57:00 22:00:11 21° 267° (W) 22:03:16 145.870
AIST 1 31 Jan 22:03:01 22:07:24 89° 78° (ENE) 22:11:48
DOVE 4 31 Jan 22:03:24 22:05:27 12° 277° (W) 22:07:11 437.250
ISS 31 Jan 22:05:24 22:08:35 46° 336° (NNW) 22:11:47 145.825
POPSAT HIP 1 31 Jan 22:07:32 22:10:30 18° 91° (E) 22:13:35 437.405
DUCHIFAT 1 31 Jan 22:08:25 22:11:24 19° 91° (E) 22:14:29 145.980
ZACube-1 31 Jan 22:13:38 22:17:35 27° 266° (W) 22:21:29 437.345
DX 1 31 Jan 22:18:18 22:21:28 19° 268° (W) 22:24:30 434.975-435.025
CUBEBUG 2 31 Jan 22:19:39 22:23:04 19° 270° (W) 22:26:21 437.445
FUNcube-1 31 Jan 22:25:04 22:28:40 21° 269° (W) 22:32:09 145.935
